Time,TemperatureF,DewpointF,PressureIn,WindDirection,WindDirectionDegrees,WindSpeedMPH,WindSpeedGustMPH,Humidity,HourlyPrecipIn,Conditions,Clouds,dailyrainin,SoftwareType,DateUTC
2013-07-19 00:01:00,54.0,53.0,30.57,West,280,0.0,7.0,97,-99.99,,,-99.99,,2013-07-19 06:01:00,
2013-07-19 00:06:00,54.0,53.0,30.56,West,280,0.0,6.0,97,-99.99,,,-99.99,,2013-07-19 06:06:00,
2013-07-19 00:11:00,54.0,53.0,30.56,West,280,5.0,0.0,97,-99.99,,,-99.99,,2013-07-19 06:11:00,
2013-07-19 00:16:00,54.0,53.0,30.55,West,260,0.0,5.0,97,-99.99,,,-99.99,,2013-07-19 06:16:00,
2013-07-19 00:26:00,54.0,53.0,30.55,West,260,0.0,0.0,97,-99.99,,,-99.99,,2013-07-19 06:26:00,
2013-07-19 00:31:00,54.0,53.0,30.55,West,260,0.0,0.0,96,-99.99,,,-99.99,,2013-07-19 06:31:00,
2013-07-19 00:41:00,54.0,53.0,30.54,West,260,0.0,0.0,97,-99.99,,,-99.99,,2013-07-19 06:41:00,
2013-07-19 00:51:00,53.0,52.0,30.53,West,260,0.0,0.0,97,-99.99,,,-99.99,,2013-07-19 06:51:00,
2013-07-19 00:56:00,53.0,52.0,30.53,West,260,0.0,0.0,98,-99.99,,,-99.99,,2013-07-19 06:56:00,
2013-07-19 01:06:00,53.0,52.0,30.53,West,260,0.0,0.0,98,-99.99,,,-99.99,,2013-07-19 07:06:00,
2013-07-19 01:11:00,53.0,52.0,30.53,West,260,0.0,0.0,98,-99.99,,,-99.99,,2013-07-19 07:11:00,
2013-07-19 01:21:00,52.0,52.0,30.53,West,260,0.0,0.0,98,-99.99,,,-99.99,,2013-07-19 07:21:00,
2013-07-19 01:26:00,52.0,51.0,30.52,West,260,0.0,0.0,97,-99.99,,,-99.99,,2013-07-19 07:26:00,
2013-07-19 01:31:00,52.0,51.0,30.52,West,260,0.0,0.0,97,-99.99,,,-99.99,,2013-07-19 07:31:00,
2013-07-19 01:46:00,52.0,51.0,30.52,West,260,0.0,0.0,97,-99.99,,,-99.99,,2013-07-19 07:46:00,
2013-07-19 01:56:00,51.0,51.0,30.52,West,260,0.0,0.0,97,-99.99,,,-99.99,,2013-07-19 07:56:00,
2013-07-19 02:01:00,51.0,50.0,30.52,West,260,0.0,0.0,97,-99.99,,,-99.99,,2013-07-19 08:01:00,
2013-07-19 02:11:00,50.0,50.0,30.52,West,280,0.0,6.0,98,-99.99,,,-99.99,,2013-07-19 08:11:00,
2013-07-19 02:16:00,50.0,50.0,30.52,West,280,0.0,0.0,98,-99.99,,,-99.99,,2013-07-19 08:16:00,
2013-07-19 02:26:00,50.0,50.0,30.51,West,280,0.0,0.0,99,-99.99,,,-99.99,,2013-07-19 08:26:00,
2013-07-19 02:36:00,50.0,49.0,30.51,West,280,0.0,0.0,98,-99.99,,,-99.99,,2013-07-19 08:36:00,
2013-07-19 02:41:00,50.0,49.0,30.51,West,280,0.0,0.0,98,-99.99,,,-99.99,,2013-07-19 08:41:00,
2013-07-19 02:51:00,50.0,49.0,30.51,West,280,0.0,0.0,98,-99.99,,,-99.99,,2013-07-19 08:51:00,
2013-07-19 03:01:00,50.0,49.0,30.50,West,280,0.0,0.0,98,-99.99,,,-99.99,,2013-07-19 09:01:00,
2013-07-19 03:06:00,49.0,49.0,30.50,NW,310,0.0,0.0,98,-99.99,,,-99.99,,2013-07-19 09:06:00,
2013-07-19 03:11:00,49.0,48.0,30.50,NW,310,0.0,4.0,98,-99.99,,,-99.99,,2013-07-19 09:11:00,
2013-07-19 03:16:00,49.0,48.0,30.51,NW,310,0.0,0.0,98,-99.99,,,-99.99,,2013-07-19 09:16:00,
2013-07-19 03:26:00,49.0,48.0,30.51,NW,310,0.0,0.0,98,-99.99,,,-99.99,,2013-07-19 09:26:00,
2013-07-19 03:31:00,48.0,48.0,30.51,NW,310,0.0,0.0,99,-99.99,,,-99.99,,2013-07-19 09:31:00,
2013-07-19 03:41:00,48.0,48.0,30.51,NW,310,0.0,0.0,99,-99.99,,,-99.99,,2013-07-19 09:41:00,
2013-07-19 03:51:00,48.0,48.0,30.50,NW,310,0.0,0.0,99,-99.99,,,-99.99,,2013-07-19 09:51:00,
2013-07-19 03:56:00,48.0,48.0,30.50,NW,310,0.0,0.0,99,-99.99,,,-99.99,,2013-07-19 09:56:00,
2013-07-19 04:01:00,48.0,48.0,30.50,NW,310,0.0,0.0,99,-99.99,,,-99.99,,2013-07-19 10:01:00,
2013-07-19 04:06:00,48.0,48.0,30.50,NW,310,0.0,0.0,99,-99.99,,,-99.99,,2013-07-19 10:06:00,
2013-07-19 04:16:00,48.0,48.0,30.50,NW,310,0.0,0.0,99,-99.99,,,-99.99,,2013-07-19 10:16:00,
2013-07-19 04:21:00,48.0,48.0,30.50,NW,310,0.0,0.0,99,-99.99,,,-99.99,,2013-07-19 10:21:00,
2013-07-19 04:31:00,48.0,47.0,30.50,NW,310,0.0,0.0,99,-99.99,,,-99.99,,2013-07-19 10:31:00,
2013-07-19 04:36:00,47.0,47.0,30.50,NW,310,0.0,0.0,99,-99.99,,,-99.99,,2013-07-19 10:36:00,
2013-07-19 04:46:00,47.0,47.0,30.51,NW,310,0.0,0.0,100,-99.99,,,-99.99,,2013-07-19 10:46:00,
2013-07-19 04:51:00,47.0,47.0,30.51,NW,310,0.0,0.0,100,-99.99,,,-99.99,,2013-07-19 10:51:00,
2013-07-19 04:56:00,47.0,47.0,30.51,NW,310,0.0,0.0,99,-99.99,,,-99.99,,2013-07-19 10:56:00,
2013-07-19 05:06:00,47.0,47.0,30.51,NW,310,0.0,0.0,100,-99.99,,,-99.99,,2013-07-19 11:06:00,
2013-07-19 05:16:00,47.0,47.0,30.51,NW,310,0.0,0.0,100,-99.99,,,-99.99,,2013-07-19 11:16:00,
2013-07-19 05:26:00,47.0,47.0,30.50,NW,310,0.0,0.0,100,-99.99,,,-99.99,,2013-07-19 11:26:00,
2013-07-19 05:36:00,46.0,46.0,30.50,NW,310,0.0,0.0,99,-99.99,,,-99.99,,2013-07-19 11:36:00,
2013-07-19 05:46:00,46.0,46.0,30.50,NW,310,0.0,0.0,100,-99.99,,,-99.99,,2013-07-19 11:46:00,
2013-07-19 05:56:00,46.0,46.0,30.51,NNW,330,0.0,4.0,100,-99.99,,,-99.99,,2013-07-19 11:56:00,
2013-07-19 06:06:00,46.0,46.0,30.51,NNW,340,0.0,6.0,100,-99.99,,,-99.99,,2013-07-19 12:06:00,
2013-07-19 06:16:00,46.0,46.0,30.50,NNW,330,0.0,6.0,100,-99.99,,,-99.99,,2013-07-19 12:16:00,
2013-07-19 06:26:00,45.0,45.0,30.50,NNW,330,0.0,0.0,100,-99.99,,,-99.99,,2013-07-19 12:26:00,
2013-07-19 06:36:00,45.0,45.0,30.50,NNE,20,0.0,0.0,100,-99.99,,,-99.99,,2013-07-19 12:36:00,
2013-07-19 06:41:00,45.0,45.0,30.51,NNW,330,4.0,4.0,100,-99.99,,,-99.99,,2013-07-19 12:41:00,
2013-07-19 06:46:00,45.0,45.0,30.51,NNE,30,0.0,4.0,100,-99.99,,,-99.99,,2013-07-19 12:46:00,
2013-07-19 06:51:00,45.0,45.0,30.51,NNW,340,0.0,7.0,100,-99.99,,,-99.99,,2013-07-19 12:51:00,
2013-07-19 06:56:00,45.0,45.0,30.51,NNW,330,3.0,6.0,100,-99.99,,,-99.99,,2013-07-19 12:56:00,
2013-07-19 07:01:00,46.0,46.0,30.51,NNW,330,0.0,8.0,100,-99.99,,,-99.99,,2013-07-19 13:01:00,
2013-07-19 07:11:00,46.0,46.0,30.51,NNW,330,0.0,0.0,100,-99.99,,,-99.99,,2013-07-19 13:11:00,
2013-07-19 07:21:00,47.0,47.0,30.51,WNW,300,0.0,0.0,100,-99.99,,,-99.99,,2013-07-19 13:21:00,
2013-07-19 07:26:00,47.0,47.0,30.51,WNW,300,3.0,0.0,100,-99.99,,,-99.99,,2013-07-19 13:26:00,
2013-07-19 07:36:00,47.0,47.0,30.51,NW,320,3.0,7.0,100,-99.99,,,-99.99,,2013-07-19 13:36:00,
2013-07-19 07:46:00,48.0,48.0,30.52,NNW,340,5.0,7.0,100,-99.99,,,-99.99,,2013-07-19 13:46:00,
2013-07-19 07:56:00,48.0,48.0,30.52,NNW,330,5.0,6.0,100,-99.99,,,-99.99,,2013-07-19 13:56:00,
2013-07-19 08:06:00,49.0,49.0,30.52,WNW,300,5.0,6.0,99,-99.99,,,-99.99,,2013-07-19 14:06:00,
2013-07-19 08:11:00,49.0,49.0,30.52,NW,310,4.0,6.0,99,-99.99,,,-99.99,,2013-07-19 14:11:00,
2013-07-19 08:16:00,50.0,50.0,30.52,WNW,290,4.0,5.0,98,-99.99,,,-99.99,,2013-07-19 14:16:00,
2013-07-19 08:26:00,52.0,51.0,30.52,North,350,0.0,4.0,96,-99.99,,,-99.99,,2013-07-19 14:26:00,
2013-07-19 08:36:00,53.0,51.0,30.52,North,350,0.0,0.0,93,-99.99,,,-99.99,,2013-07-19 14:36:00,
2013-07-19 08:46:00,55.0,52.0,30.52,NNE,30,3.0,0.0,90,-99.99,,,-99.99,,2013-07-19 14:46:00,
2013-07-19 08:51:00,56.0,52.0,30.52,NNE,30,0.0,4.0,88,-99.99,,,-99.99,,2013-07-19 14:51:00,
2013-07-19 09:01:00,58.0,53.0,30.52,NNE,30,0.0,0.0,82,-99.99,,,-99.99,,2013-07-19 15:01:00,
2013-07-19 09:11:00,60.0,52.0,30.52,NNE,30,0.0,0.0,77,-99.99,,,-99.99,,2013-07-19 15:11:00,
2013-07-19 09:21:00,61.0,53.0,30.51,NNE,30,0.0,0.0,75,-99.99,,,-99.99,,2013-07-19 15:21:00,
2013-07-19 09:26:00,62.0,54.0,30.52,NNE,30,0.0,0.0,75,-99.99,,,-99.99,,2013-07-19 15:26:00,
2013-07-19 09:36:00,62.0,53.0,30.51,NNE,30,0.0,0.0,73,-99.99,,,-99.99,,2013-07-19 15:36:00,
2013-07-19 09:41:00,63.0,54.0,30.51,WNW,290,3.0,0.0,73,-99.99,,,-99.99,,2013-07-19 15:41:00,
2013-07-19 09:51:00,64.0,54.0,30.50,WNW,300,0.0,3.0,70,-99.99,,,-99.99,,2013-07-19 15:51:00,
2013-07-19 10:01:00,66.0,56.0,30.50,WNW,300,0.0,3.0,70,-99.99,,,-99.99,,2013-07-19 16:01:00,
2013-07-19 10:11:00,68.0,55.0,30.50,South,180,0.0,3.0,63,-99.99,,,-99.99,,2013-07-19 16:11:00,
2013-07-19 10:16:00,68.0,54.0,30.50,South,180,0.0,0.0,60,-99.99,,,-99.99,,2013-07-19 16:16:00,
2013-07-19 10:26:00,69.0,53.0,30.50,SW,220,0.0,3.0,56,-99.99,,,-99.99,,2013-07-19 16:26:00,
2013-07-19 10:36:00,69.0,52.0,30.49,South,190,0.0,4.0,54,-99.99,,,-99.99,,2013-07-19 16:36:00,
2013-07-19 10:46:00,70.0,52.0,30.49,SSE,150,0.0,0.0,53,-99.99,,,-99.99,,2013-07-19 16:46:00,
2013-07-19 10:56:00,71.0,53.0,30.49,SSE,150,0.0,0.0,52,-99.99,,,-99.99,,2013-07-19 16:56:00,
2013-07-19 11:06:00,72.0,55.0,30.49,South,170,3.0,5.0,55,-99.99,,,-99.99,,2013-07-19 17:06:00,
2013-07-19 11:11:00,72.0,54.0,30.49,SE,130,5.0,6.0,54,-99.99,,,-99.99,,2013-07-19 17:11:00,
2013-07-19 11:21:00,72.0,53.0,30.49,SSE,160,8.0,8.0,52,-99.99,,,-99.99,,2013-07-19 17:21:00,
2013-07-19 11:31:00,74.0,54.0,30.49,SSE,160,13.0,13.0,51,-99.99,,,-99.99,,2013-07-19 17:31:00,
2013-07-19 11:41:00,74.0,55.0,30.49,SE,140,3.0,11.0,50,-99.99,,,-99.99,,2013-07-19 17:41:00,
2013-07-19 11:46:00,75.0,54.0,30.48,South,170,9.0,12.0,48,-99.99,,,-99.99,,2013-07-19 17:46:00,
2013-07-19 11:51:00,75.0,52.0,30.48,South,180,10.0,13.0,46,-99.99,,,-99.99,,2013-07-19 17:51:00,
2013-07-19 12:01:00,74.0,52.0,30.48,ESE,110,8.0,12.0,45,-99.99,,,-99.99,,2013-07-19 18:01:00,
2013-07-19 12:06:00,74.0,51.0,30.48,SSE,150,7.0,13.0,44,-99.99,,,-99.99,,2013-07-19 18:06:00,
2013-07-19 12:11:00,74.0,52.0,30.48,SSE,160,10.0,12.0,45,-99.99,,,-99.99,,2013-07-19 18:11:00,
2013-07-19 12:16:00,74.0,51.0,30.48,East,90,3.0,10.0,44,-99.99,,,-99.99,,2013-07-19 18:16:00,
2013-07-19 12:26:00,72.0,50.0,30.48,ESE,120,0.0,8.0,46,-99.99,,,-99.99,,2013-07-19 18:26:00,
2013-07-19 12:31:00,72.0,50.0,30.48,ESE,110,5.0,10.0,47,-99.99,,,-99.99,,2013-07-19 18:31:00,
2013-07-19 12:36:00,72.0,50.0,30.48,SSE,160,0.0,7.0,45,-99.99,,,-99.99,,2013-07-19 18:36:00,
2013-07-19 12:46:00,72.0,48.0,30.47,SSE,150,6.0,8.0,42,-99.99,,,-99.99,,2013-07-19 18:46:00,
2013-07-19 12:56:00,73.0,49.0,30.47,SSE,160,6.0,7.0,43,-99.99,,,-99.99,,2013-07-19 18:56:00,
2013-07-19 13:01:00,74.0,52.0,30.47,South,170,7.0,7.0,46,-99.99,,,-99.99,,2013-07-19 19:01:00,
2013-07-19 13:11:00,74.0,49.0,30.46,East,80,0.0,6.0,41,-99.99,,,-99.99,,2013-07-19 19:11:00,
2013-07-19 13:21:00,75.0,49.0,30.46,SSW,210,5.0,5.0,41,-99.99,,,-99.99,,2013-07-19 19:21:00,
2013-07-19 13:26:00,75.0,51.0,30.46,SSW,210,3.0,6.0,43,-99.99,,,-99.99,,2013-07-19 19:26:00,
2013-07-19 13:36:00,76.0,50.0,30.46,WSW,240,3.0,6.0,40,-99.99,,,-99.99,,2013-07-19 19:36:00,
2013-07-19 13:46:00,76.0,49.0,30.46,NE,40,0.0,4.0,39,-99.99,,,-99.99,,2013-07-19 19:46:00,
2013-07-19 13:56:00,75.0,50.0,30.46,ESE,110,10.0,10.0,41,-99.99,,,-99.99,,2013-07-19 19:56:00,
2013-07-19 14:06:00,74.0,49.0,30.45,ENE,60,6.0,13.0,42,-99.99,,,-99.99,,2013-07-19 20:06:00,
2013-07-19 14:11:00,73.0,49.0,30.45,ESE,120,8.0,13.0,43,-99.99,,,-99.99,,2013-07-19 20:11:00,
2013-07-19 14:21:00,72.0,50.0,30.45,NE,40,6.0,10.0,45,-99.99,,,-99.99,,2013-07-19 20:21:00,
2013-07-19 14:31:00,72.0,49.0,30.44,ENE,70,6.0,11.0,45,-99.99,,,-99.99,,2013-07-19 20:31:00,
2013-07-19 14:36:00,72.0,49.0,30.44,ESE,110,9.0,12.0,45,-99.99,,,-99.99,,2013-07-19 20:36:00,
2013-07-19 14:46:00,72.0,49.0,30.44,East,100,6.0,12.0,45,-99.99,,,-99.99,,2013-07-19 20:46:00,
2013-07-19 14:56:00,72.0,48.0,30.44,East,90,4.0,12.0,44,-99.99,,,-99.99,,2013-07-19 20:56:00,
2013-07-19 15:01:00,72.0,48.0,30.44,NE,40,3.0,11.0,44,-99.99,,,-99.99,,2013-07-19 21:01:00,
2013-07-19 15:06:00,72.0,48.0,30.44,East,100,9.0,9.0,44,-99.99,,,-99.99,,2013-07-19 21:06:00,
2013-07-19 15:16:00,72.0,49.0,30.44,NNE,30,0.0,11.0,44,-99.99,,,-99.99,,2013-07-19 21:16:00,
2013-07-19 15:26:00,71.0,49.0,30.44,East,90,9.0,10.0,46,-99.99,,,-99.99,,2013-07-19 21:26:00,
2013-07-19 15:31:00,71.0,49.0,30.44,NNE,20,3.0,11.0,46,-99.99,,,-99.99,,2013-07-19 21:31:00,
2013-07-19 15:41:00,71.0,50.0,30.44,East,80,7.0,12.0,47,-99.99,,,-99.99,,2013-07-19 21:41:00,
2013-07-19 15:46:00,71.0,50.0,30.45,ENE,70,0.0,9.0,47,-99.99,,,-99.99,,2013-07-19 21:46:00,
2013-07-19 15:56:00,71.0,48.0,30.45,NE,50,10.0,10.0,44,-99.99,,,-99.99,,2013-07-19 21:56:00,
2013-07-19 16:06:00,70.0,48.0,30.45,East,90,6.0,13.0,46,-99.99,,,-99.99,,2013-07-19 22:06:00,
2013-07-19 16:11:00,69.0,48.0,30.45,ENE,60,6.0,12.0,47,-99.99,,,-99.99,,2013-07-19 22:11:00,
2013-07-19 16:16:00,69.0,48.0,30.45,East,100,7.0,13.0,47,-99.99,,,-99.99,,2013-07-19 22:16:00,
2013-07-19 16:26:00,68.0,48.0,30.46,North,10,3.0,12.0,48,-99.99,,,-99.99,,2013-07-19 22:26:00,
2013-07-19 16:31:00,68.0,48.0,30.46,East,80,0.0,17.0,49,-99.99,,,-99.99,,2013-07-19 22:31:00,
2013-07-19 16:41:00,67.0,49.0,30.45,NE,50,0.0,18.0,51,-99.99,,,-99.99,,2013-07-19 22:41:00,
2013-07-19 16:51:00,66.0,50.0,30.45,SSE,160,7.0,15.0,56,-99.99,,,-99.99,,2013-07-19 22:51:00,
2013-07-19 17:01:00,66.0,50.0,30.45,East,100,7.0,12.0,57,-99.99,,,-99.99,,2013-07-19 23:01:00,
2013-07-19 17:11:00,65.0,52.0,30.44,East,90,0.0,10.0,61,-99.99,,,-99.99,,2013-07-19 23:11:00,
2013-07-19 17:16:00,65.0,52.0,30.44,East,90,0.0,10.0,61,-99.99,,,-99.99,,2013-07-19 23:16:00,
2013-07-19 17:26:00,65.0,52.0,30.45,SE,130,5.0,7.0,61,-99.99,,,-99.99,,2013-07-19 23:26:00,
2013-07-19 17:36:00,64.0,52.0,30.45,ESE,110,6.0,10.0,63,-99.99,,,-99.99,,2013-07-19 23:36:00,
2013-07-19 17:41:00,64.0,52.0,30.45,NNE,30,4.0,11.0,64,-99.99,,,-99.99,,2013-07-19 23:41:00,
2013-07-19 17:51:00,64.0,52.0,30.45,East,80,0.0,10.0,64,-99.99,,,-99.99,,2013-07-19 23:51:00,
2013-07-19 18:01:00,64.0,52.0,30.45,ENE,60,0.0,8.0,64,-99.99,,,-99.99,,2013-07-20 00:01:00,
2013-07-19 18:06:00,64.0,52.0,30.46,East,90,3.0,10.0,63,-99.99,,,-99.99,,2013-07-20 00:06:00,
2013-07-19 18:11:00,64.0,52.0,30.45,East,90,7.0,10.0,63,-99.99,,,-99.99,,2013-07-20 00:11:00,
2013-07-19 18:21:00,65.0,52.0,30.45,SE,140,0.0,11.0,63,-99.99,,,-99.99,,2013-07-20 00:21:00,
2013-07-19 18:26:00,65.0,53.0,30.46,SSE,150,0.0,7.0,65,-99.99,,,-99.99,,2013-07-20 00:26:00,
2013-07-19 18:36:00,66.0,54.0,30.46,SSE,150,7.0,12.0,65,-99.99,,,-99.99,,2013-07-20 00:36:00,
2013-07-19 18:41:00,66.0,53.0,30.46,South,190,11.0,12.0,63,-99.99,,,-99.99,,2013-07-20 00:41:00,
2013-07-19 18:46:00,66.0,53.0,30.46,SSE,160,7.0,13.0,63,-99.99,,,-99.99,,2013-07-20 00:46:00,
2013-07-19 18:51:00,66.0,54.0,30.47,SSE,160,14.0,17.0,64,-99.99,,,-99.99,,2013-07-20 00:51:00,
2013-07-19 19:01:00,66.0,54.0,30.47,SE,140,14.0,15.0,65,-99.99,,,-99.99,,2013-07-20 01:01:00,
2013-07-19 19:11:00,65.0,53.0,30.47,SSE,150,11.0,16.0,66,-99.99,,,-99.99,,2013-07-20 01:11:00,
2013-07-19 19:21:00,64.0,53.0,30.47,SE,140,12.0,15.0,68,-99.99,,,-99.99,,2013-07-20 01:21:00,
2013-07-19 19:31:00,64.0,53.0,30.48,SSE,160,14.0,15.0,69,-99.99,,,-99.99,,2013-07-20 01:31:00,
2013-07-19 19:36:00,63.0,54.0,30.48,South,180,10.0,13.0,71,-99.99,,,-99.99,,2013-07-20 01:36:00,
2013-07-19 19:46:00,63.0,55.0,30.48,SSE,160,9.0,15.0,75,-99.99,,,-99.99,,2013-07-20 01:46:00,
2013-07-19 19:51:00,62.0,55.0,30.48,South,180,14.0,15.0,76,-99.99,,,-99.99,,2013-07-20 01:51:00,
2013-07-19 20:01:00,61.0,55.0,30.48,South,170,10.0,12.0,79,-99.99,,,-99.99,,2013-07-20 02:01:00,
2013-07-19 20:11:00,60.0,55.0,30.48,South,180,10.0,12.0,81,-99.99,,,-99.99,,2013-07-20 02:11:00,
2013-07-19 20:16:00,60.0,55.0,30.49,South,180,8.0,11.0,82,-99.99,,,-99.99,,2013-07-20 02:16:00,
2013-07-19 20:26:00,59.0,54.0,30.49,South,170,8.0,9.0,83,-99.99,,,-99.99,,2013-07-20 02:26:00,
2013-07-19 20:31:00,59.0,54.0,30.49,ESE,120,5.0,9.0,84,-99.99,,,-99.99,,2013-07-20 02:31:00,
2013-07-19 20:41:00,58.0,55.0,30.49,ESE,120,0.0,0.0,88,-99.99,,,-99.99,,2013-07-20 02:41:00,
2013-07-19 20:51:00,57.0,54.0,30.49,ESE,120,0.0,0.0,89,-99.99,,,-99.99,,2013-07-20 02:51:00,
2013-07-19 21:01:00,57.0,54.0,30.49,ESE,120,5.0,6.0,91,-99.99,,,-99.99,,2013-07-20 03:01:00,
2013-07-19 21:11:00,56.0,54.0,30.49,ENE,70,5.0,6.0,91,-99.99,,,-99.99,,2013-07-20 03:11:00,
2013-07-19 21:21:00,56.0,53.0,30.50,ENE,60,0.0,6.0,92,-99.99,,,-99.99,,2013-07-20 03:21:00,
2013-07-19 21:26:00,56.0,54.0,30.50,ENE,60,0.0,6.0,92,-99.99,,,-99.99,,2013-07-20 03:26:00,
2013-07-19 21:36:00,56.0,53.0,30.50,NW,310,5.0,0.0,92,-99.99,,,-99.99,,2013-07-20 03:36:00,
2013-07-19 21:46:00,55.0,53.0,30.50,NW,320,4.0,7.0,92,-99.99,,,-99.99,,2013-07-20 03:46:00,
2013-07-19 21:56:00,55.0,53.0,30.51,NNW,340,0.0,0.0,92,-99.99,,,-99.99,,2013-07-20 03:56:00,
2013-07-19 22:01:00,55.0,53.0,30.52,NNW,340,0.0,0.0,92,-99.99,,,-99.99,,2013-07-20 04:01:00,
2013-07-19 22:06:00,55.0,52.0,30.51,NNW,340,0.0,0.0,92,-99.99,,,-99.99,,2013-07-20 04:06:00,
2013-07-19 22:11:00,55.0,52.0,30.51,NNW,340,0.0,0.0,92,-99.99,,,-99.99,,2013-07-20 04:11:00,
2013-07-19 22:16:00,55.0,52.0,30.52,NNW,340,0.0,0.0,92,-99.99,,,-99.99,,2013-07-20 04:16:00,
2013-07-19 22:26:00,54.0,52.0,30.51,NNW,340,0.0,0.0,93,-99.99,,,-99.99,,2013-07-20 04:26:00,
2013-07-19 22:31:00,54.0,52.0,30.50,NNW,340,0.0,0.0,93,-99.99,,,-99.99,,2013-07-20 04:31:00,
2013-07-19 22:41:00,54.0,52.0,30.50,NNW,340,0.0,0.0,93,-99.99,,,-99.99,,2013-07-20 04:41:00,
2013-07-19 22:46:00,54.0,52.0,30.50,NNW,340,0.0,0.0,93,-99.99,,,-99.99,,2013-07-20 04:46:00,
2013-07-19 22:56:00,54.0,52.0,30.50,NNW,340,0.0,0.0,94,-99.99,,,-99.99,,2013-07-20 04:56:00,
2013-07-19 23:06:00,54.0,52.0,30.50,NNW,340,0.0,0.0,94,-99.99,,,-99.99,,2013-07-20 05:06:00,
2013-07-19 23:16:00,53.0,52.0,30.50,North,10,0.0,6.0,94,-99.99,,,-99.99,,2013-07-20 05:16:00,
2013-07-19 23:26:00,53.0,51.0,30.50,NNE,20,3.0,5.0,95,-99.99,,,-99.99,,2013-07-20 05:26:00,
2013-07-19 23:36:00,53.0,51.0,30.50,NNE,30,0.0,4.0,95,-99.99,,,-99.99,,2013-07-20 05:36:00,
2013-07-19 23:46:00,52.0,51.0,30.50,NNE,30,0.0,0.0,95,-99.99,,,-99.99,,2013-07-20 05:46:00,
2013-07-19 23:51:00,52.0,51.0,30.50,NNE,30,0.0,0.0,95,-99.99,,,-99.99,,2013-07-20 05:51:00,
2013-07-19 23:56:00,52.0,51.0,30.50,NNE,30,2.0,2.0,95,-99.99,,,-99.99,,2013-07-20 05:56:00,